Weather in Karmanovo

Russia / Smolensk Oblast     55°49′52″N   34°51′20″E
temp.,
°C
wind,
m/s
gust,
m/s
humid.,
%
clouds,
%
prec.,
mm/h
press.,
hPa
HPBL,
m
15 april, thu
thu1500:00+10n3488100 0.0 101762
03:00+9nne4997100 0.0 1017266
06:00+9ne4997100 0.5 1017375
09:00+10ne6988100 0.5 1016290
12:00+12ene5875100 0.0 1017537
15:00+13ne61073100 0.1 1016742
18:00+12ne71381100 0.4 1016560
21:00+10ne81684100 0.6 1016621
16 april, fri
fri1600:00+9ene71587100 0.1 1018625
03:00+8ne61390100 0.2 1017459
06:00+7ene51192100 0.1 1018444
09:00+9ene51185100 0.2 1019662
12:00+11ene61077100 0.1 1020706
15:00+13ene51069100 1.0 1020945
18:00+13ene71167100 0.0 1020979
21:00+10ene71473100 0.0 1021717
17 april, sat
sat1700:00+9ene61478100 0.0 1022698
03:00+8ene51282100 0.0 1023619
06:00+6ene51183100 0.0 1024506
09:00+8ene6107585 0.1 1025575
12:00+11ene676498 0.0 1025907
15:00+14ene685773 0.0 10251173
18:00+13ene695719 0.0 10251012
21:00+9ene512605 0.0 1026371
18 april, sun
sun1800:00+6ne411630 0.0 1028316
03:00+5ene410702 0.0 1028275
06:00+4ene411750 0.0 1029269
09:00+8ene59561 0.0 1029594
12:00+12e56410 0.0 10291324
15:00+13ene56395 0.0 10291691
18:00+12ene46455 0.0 1029607
21:00+7ene38650 0.0 1030129
19 april, mon
mon1900:00+5e37715 0.0 1031130
03:00+4e35755 0.0 103287
06:00+3e35815 0.0 103390
09:00+9e46635 0.0 1032429
12:00+12ese565181 0.0 10321846
15:00+11ese4656100 0.1 10321093
18:00+10e2562100 0.0 1031222
21:00+9ese4106265 0.0 1032336